Theta_e
352 350 349 349 349 349 349 349 349 348 349 350 352 350 349 350 350 351 350 348 346 347 347 347 346 347 347 346 347 346 346 346 346 347 349 349 349 351 358 362 361 361 364 364 362 360 360 360 359 359 358 358 358 357 356 356 357 357 357 357 356 356 357 356 356 356 355 355 355 355 355 355 355 354 355 354 354 354 354 354 354 354 354 354 353
351 349 347 346 346 348 350 349 349 349 349 349 350 350 349 347 346 349 350 347 346 346 348 346 346 346 346 346 346 347 347 347 347 347 348 348 348 350 357 359 362 362 362 362 360 360 361 360 360 359 359 359 358 358 357 357 357 357 357 357 357 356 357 357 356 356 356 356 355 355 355 355 355 354 354 354 354 354 354 354 354 354 354 354 354
350 348 347 345 344 346 348 349 349 350 350 350 351 352 351 350 349 347 348 348 347 346 348 347 346 346 347 347 347 346 346 347 347 348 348 349 349 349 351 358 361 363 363 363 362 362 361 361 361 360 359 359 358 358 358 357 358 358 357 357 357 357 357 356 356 356 356 356 356 355 355 355 355 355 355 354 354 354 354 355 355 355 355 354 354
350 349 347 345 345 347 348 349 351 352 352 352 352 353 352 350 349 349 349 348 349 348 348 347 346 347 347 347 348 347 346 346 346 348 349 350 350 349 350 353 361 363 364 361 360 360 361 361 360 360 359 359 360 359 358 358 358 358 358 357 358 358 357 357 356 357 357 356 356 356 356 355 355 355 355 355 354 355 355 355 356 355 355 355 355
351 351 353 348 347 348 350 352 352 353 354 355 353 352 349 349 349 350 349 347 345 346 347 347 345 345 345 345 345 346 347 346 346 348 350 352 351 351 352 354 357 361 364 363 361 361 360 360 359 361 360 359 359 359 358 358 358 358 358 358 358 357 357 357 357 357 357 356 356 356 356 356 356 356 355 355 355 355 355 356 356 356 356 355 355
352 352 351 349 350 350 351 352 353 353 353 353 354 352 350 349 347 344 349 349 346 345 344 344 345 345 345 346 346 346 346 346 346 346 349 351 352 351 352 354 357 358 359 362 362 362 362 360 360 359 360 360 360 359 359 359 359 358 358 358 358 357 357 357 357 357 356 356 357 357 356 356 356 356 356 356 355 355 355 356 356 356 355 356 356
349 347 348 348 350 351 351 353 354 352 349 349 349 351 352 348 348 345 346 346 345 346 345 344 344 345 345 346 344 345 346 346 347 347 347 348 348 348 349 352 355 356 356 356 360 361 361 361 360 360 360 359 360 360 360 359 359 359 359 359 358 358 357 357 357 357 357 357 357 357 357 357 357 357 357 357 356 356 356 356 356 356 356 356 356
347 347 346 346 348 350 352 353 351 349 347 347 349 349 348 350 350 350 346 346 344 343 345 344 344 344 345 346 346 347 346 346 347 347 348 347 347 347 348 349 352 354 358 354 355 357 361 362 362 360 361 360 359 360 360 360 360 359 359 359 358 359 358 357 357 357 357 357 357 357 357 357 357 357 357 357 357 357 356 356 356 356 356 357 357
347 348 346 345 345 346 349 352 353 351 349 348 346 349 349 351 349 349 347 345 344 344 343 344 344 345 346 346 346 346 345 345 346 346 347 345 345 346 347 348 350 358 355 354 355 356 358 361 362 360 360 360 360 359 361 360 361 360 359 359 359 359 358 358 358 358 357 357 357 357 357 357 357 357 357 357 358 357 357 357 357 357 358 357 357
347 347 348 349 348 349 351 353 353 352 350 348 347 349 350 348 349 347 347 346 345 345 345 344 345 345 346 347 347 347 347 346 346 353 345 343 343 344 346 347 349 349 352 352 353 355 356 358 362 363 362 360 359 360 358 359 361 361 360 359 358 358 359 359 359 358 358 358 357 358 358 358 357 358 358 358 358 357 357 357 357 358 358 357 358
347 347 346 348 348 349 352 353 353 351 350 349 348 349 349 346 346 347 346 346 346 346 346 345 344 344 345 346 347 347 347 346 349 348 345 344 344 346 347 347 347 348 348 350 351 352 354 355 355 356 358 360 360 360 361 359 359 361 361 360 360 359 359 359 359 359 359 358 358 358 358 358 358 358 358 357 358 358 358 358 358 359 358 358 358
347 348 347 348 348 350 352 353 351 350 346 343 344 343 345 344 345 344 343 342 347 344 342 342 342 341 344 345 346 346 346 348 348 347 349 346 345 347 347 347 347 347 348 348 349 350 351 353 355 354 355 357 361 361 358 360 360 361 361 361 360 360 360 359 359 359 359 359 358 358 359 359 359 358 358 358 358 358 358 358 359 359 359 358 358
350 350 349 353 353 353 352 351 348 347 345 343 343 344 344 346 344 344 342 337 337 339 341 342 341 340 338 339 341 343 346 347 346 346 346 348 347 347 349 348 347 346 347 347 347 348 349 351 352 354 354 354 356 360 360 357 359 361 360 359 361 361 361 360 360 359 360 360 360 359 359 358 358 359 358 358 358 358 358 357 358 358 359 358 358
354 353 354 353 354 351 347 347 346 344 345 345 345 350 345 343 343 338 339 340 336 339 342 339 333 334 334 335 334 336 340 342 343 345 346 347 347 348 348 349 349 348 347 347 346 346 347 349 351 352 354 355 355 356 357 357 358 360 359 359 360 360 361 361 361 360 361 361 361 360 359 358 358 358 358 358 358 358 357 357 357 358 358 359 358
354 355 353 351 349 347 347 345 343 345 341 339 340 341 340 340 340 338 334 336 339 341 340 338 333 335 337 334 330 328 332 331 337 341 345 346 346 346 347 346 346 346 346 345 345 346 346 347 347 349 351 352 353 354 355 358 358 360 359 359 359 359 358 361 361 361 361 362 361 361 360 359 358 359 358 358 358 358 358 357 357 357 357 358 358
352 350 348 347 347 345 342 340 340 343 341 339 339 340 340 339 338 337 337 338 339 336 342 338 337 334 329 329 327 329 325 323 329 334 338 338 341 344 344 344 344 343 345 344 344 345 345 346 346 348 349 350 352 353 353 352 356 359 360 361 360 358 359 358 361 362 361 362 361 361 360 359 358 358 359 359 358 358 358 357 357 357 357 358 358
344 344 345 341 340 340 339 339 340 340 341 339 340 340 341 340 338 337 338 339 337 335 336 339 337 337 333 329 328 326 324 325 330 331 336 335 337 338 340 341 344 342 342 343 342 342 342 342 343 344 346 347 348 349 350 352 353 356 357 361 361 359 359 360 359 359 362 362 361 361 359 359 359 359 359 360 359 359 358 357 357 357 357 357 357
340 340 342 342 338 339 339 339 339 341 341 340 339 338 338 341 340 340 337 336 336 333 330 334 338 339 337 335 334 328 326 330 330 325 333 336 336 338 338 337 338 340 341 341 341 341 343 342 342 343 344 344 345 344 346 349 351 352 355 357 362 360 359 359 357 358 358 362 361 361 361 359 359 359 360 360 360 360 359 357 357 357 357 357 357
339 338 339 342 339 340 339 339 340 339 346 338 338 338 338 340 342 339 337 339 334 331 329 330 333 333 336 336 336 336 337 332 328 329 325 329 334 333 333 335 336 337 338 340 342 342 342 343 343 343 344 344 345 346 347 348 351 352 354 357 360 360 359 359 360 358 359 358 360 361 361 361 359 359 359 359 361 360 359 359 357 357 357 357 357
339 338 339 340 342 339 339 339 340 342 346 341 339 338 340 340 343 340 338 338 333 331 331 331 334 333 336 334 336 338 338 336 334 330 327 323 325 331 333 334 334 335 336 337 339 341 342 342 343 343 343 344 346 347 347 347 348 349 353 356 358 360 359 358 360 360 360 359 358 361 361 362 361 360 359 360 361 361 360 360 359 357 357 358 358
337 339 340 341 348 339 338 337 337 340 347 341 339 340 339 337 336 336 335 336 336 333 332 331 332 331 330 332 334 333 334 333 330 332 328 325 324 325 326 331 332 332 334 337 337 339 341 342 343 344 345 345 345 346 346 346 347 348 352 354 358 359 358 357 358 361 360 360 360 359 360 362 362 363 362 361 361 361 361 360 360 360 358 358 359
337 338 338 340 340 341 338 337 337 341 346 340 339 338 337 337 337 336 335 335 336 337 334 333 333 331 331 331 329 332 333 330 328 329 330 330 325 325 326 325 324 327 332 333 334 337 339 342 343 344 344 344 344 344 345 346 346 347 349 353 355 357 357 356 357 360 361 360 360 360 360 360 361 362 363 363 362 362 362 361 361 361 361 360 360
336 337 338 341 341 344 338 337 338 347 345 339 338 338 339 337 338 337 337 335 333 332 335 335 333 331 330 329 329 329 329 326 323 326 329 327 326 325 326 327 326 325 329 332 335 335 337 338 339 341 342 344 344 344 344 345 349 350 352 352 353 353 354 355 356 358 357 358 361 360 361 361 360 360 362 363 363 363 362 362 362 362 362 362 361
335 335 338 339 339 337 342 337 340 338 337 336 338 338 339 338 336 335 334 334 333 335 330 330 330 329 329 330 329 328 327 326 327 329 330 329 328 325 325 327 326 326 329 330 332 332 334 335 337 338 341 342 345 346 345 345 346 351 352 353 352 351 352 353 354 355 355 355 354 357 359 360 361 360 359 359 362 363 363 363 362 363 363 362 361
332 334 335 337 337 335 336 335 335 336 339 338 338 339 338 337 336 335 334 333 332 332 331 330 330 329 328 330 330 329 329 329 329 329 329 331 330 325 325 325 324 324 325 326 326 331 332 333 335 337 339 340 343 345 347 348 347 349 352 352 351 350 350 350 350 350 352 352 353 356 358 358 357 357 358 359 359 361 363 363 363 362 362 362 361
332 334 336 336 338 337 339 336 335 335 338 338 338 337 337 335 335 334 333 334 333 333 333 332 331 332 330 328 328 329 330 331 331 330 329 327 327 326 325 323 322 321 322 322 324 324 326 331 334 335 337 338 340 342 343 345 348 352 353 351 349 348 348 347 348 347 348 350 350 353 355 356 356 356 356 357 358 358 360 362 363 363 363 362 360
333 336 337 336 336 335 337 336 336 335 338 340 343 338 338 338 337 334 335 334 333 334 332 331 332 330 329 329 330 328 329 330 331 331 330 329 328 326 326 321 319 318 318 319 321 321 323 326 330 330 333 337 339 340 341 342 346 350 352 350 350 349 347 346 346 346 346 346 347 349 352 353 354 356 355 355 355 358 359 359 360 361 361 360 359
334 336 337 337 335 337 339 337 335 336 336 337 337 338 336 334 332 333 332 339 334 332 332 330 331 331 331 331 328 330 332 331 331 332 331 329 328 323 326 325 319 315 317 316 316 317 323 323 326 328 331 332 333 334 339 339 340 346 350 348 348 349 349 347 345 345 344 345 345 345 347 349 350 351 353 353 352 353 355 356 356 357 357 357 357
336 339 335 335 335 335 334 334 335 335 334 336 336 335 336 336 335 331 332 334 335 333 332 332 332 332 331 331 330 328 329 330 331 333 329 327 326 325 325 325 325 320 315 313 314 314 318 323 320 323 327 327 327 329 330 331 336 338 339 344 346 347 347 345 345 344 344 343 343 343 344 345 346 347 350 351 350 351 352 352 352 353 354 354 355
337 339 336 335 334 343 334 334 335 334 335 334 334 335 335 334 334 333 334 333 333 332 335 334 333 331 333 332 330 328 330 330 330 329 328 326 324 323 323 324 327 322 320 315 313 315 316 319 321 320 323 324 326 326 327 328 334 334 336 338 344 347 344 343 344 344 344 343 342 341 342 342 343 344 345 345 346 348 349 349 349 350 351 352 354
337 334 334 333 334 333 334 334 333 334 333 334 335 334 334 333 334 334 334 333 331 331 332 334 334 333 330 330 329 328 329 330 329 328 327 327 323 323 323 322 324 326 322 319 313 316 319 316 319 322 322 323 325 325 325 327 330 332 333 335 338 343 345 345 343 342 342 341 340 340 339 338 339 341 341 342 344 345 347 348 348 348 349 350 352
334 335 334 334 333 331 333 334 333 332 331 333 334 333 333 333 333 334 333 333 332 331 332 331 334 332 329 329 329 328 327 327 328 326 322 323 323 321 320 319 319 319 320 318 316 314 319 319 320 321 323 323 324 323 323 325 329 333 332 334 336 342 341 345 346 342 340 339 339 339 337 336 337 339 340 341 342 344 346 345 344 345 346 348 349
333 333 332 331 330 331 332 333 331 331 331 332 333 332 331 332 332 333 332 332 332 331 331 330 331 331 330 328 328 328 327 326 326 325 323 321 322 322 322 319 318 318 317 316 316 316 319 322 321 321 322 323 321 323 322 323 324 326 331 333 336 337 340 343 345 345 342 338 337 336 336 336 336 337 338 340 341 343 344 345 343 343 344 343 344
332 333 331 331 331 332 332 331 332 331 332 332 333 332 332 331 332 335 334 331 329 330 327 327 328 330 329 326 327 327 327 327 326 324 322 321 321 319 318 320 317 318 319 317 318 318 316 320 320 321 321 323 320 323 321 321 322 325 326 329 334 337 340 343 344 346 343 340 336 334 334 335 335 336 336 338 339 340 341 341 341 340 341 341 340
332 332 332 331 332 332 331 331 331 331 332 332 333 333 332 331 331 331 333 330 329 329 327 327 327 327 326 327 328 327 328 326 325 324 323 322 322 320 319 320 319 319 319 319 318 317 317 318 320 319 320 321 320 320 322 323 324 325 325 327 331 335 338 341 343 345 344 341 337 335 334 334 335 335 335 336 336 336 337 336 337 337 338 337 337
332 333 334 333 332 332 331 331 330 330 331 332 333 333 333 332 331 331 330 329 329 329 329 328 327 326 327 326 327 327 327 325 325 323 323 322 321 321 320 319 319 319 319 319 319 319 319 317 319 319 320 319 320 322 323 324 323 324 326 329 331 333 335 337 339 342 343 339 337 335 334 334 334 333 333 333 333 332 332 332 333 334 334 334 334
332 331 332 333 332 331 332 330 330 331 331 332 333 333 333 333 332 331 330 329 327 327 328 328 331 328 327 327 327 326 325 324 324 323 322 321 322 321 320 319 319 319 320 320 319 320 320 318 319 321 321 320 321 321 322 321 323 324 327 328 330 332 333 335 337 339 340 338 337 337 335 334 333 333 333 333 332 331 331 330 330 331 332 332 332
328 328 328 329 332 329 329 330 330 330 331 331 332 333 333 333 332 330 330 328 326 326 326 326 326 327 327 326 327 326 324 324 324 323 322 322 321 320 320 320 320 320 319 319 320 321 321 320 319 318 319 318 318 319 321 322 322 322 324 326 329 332 333 333 335 338 341 342 342 342 338 336 335 333 332 333 332 331 330 330 329 328 328 328 326
328 326 326 325 329 328 329 329 330 330 330 330 331 332 332 332 331 329 327 326 326 326 326 327 327 327 327 327 327 326 324 324 323 322 321 321 322 321 322 320 321 319 319 319 320 321 321 320 319 319 317 318 319 318 321 323 323 323 323 324 325 329 332 333 333 337 339 341 341 340 341 340 339 337 332 330 331 331 331 329 328 326 325 324 323
327 326 326 326 325 329 327 326 327 328 327 326 326 328 331 332 331 329 328 327 327 326 326 327 327 328 327 327 326 325 325 324 323 322 321 321 321 321 322 322 321 320 319 320 322 322 321 319 318 317 317 316 318 320 321 321 320 321 324 324 321 323 326 330 333 334 337 339 340 342 341 339 338 336 332 332 331 331 330 330 330 329 327 324 323
332 328 327 327 325 327 326 326 326 327 328 328 328 328 331 332 331 330 328 328 327 326 326 326 326 326 326 326 326 326 328 331 324 322 321 321 322 321 321 321 321 320 320 321 322 321 320 318 317 317 316 316 317 317 318 318 318 318 321 322 322 324 326 327 330 334 337 337 339 341 341 343 343 342 340 338 337 335 333 332 334 334 330 325 324
329 330 328 327 326 325 325 325 325 328 329 330 334 333 334 334 330 330 329 328 328 327 328 326 325 325 325 325 328 334 330 328 325 322 319 317 316 321 323 321 321 319 320 322 322 321 319 316 316 316 315 315 316 317 318 319 321 322 321 322 320 322 324 324 327 331 335 337 337 336 339 343 343 342 343 341 342 340 338 336 335 336 334 328 326
329 329 330 327 328 327 326 325 325 328 328 329 330 328 330 332 332 329 329 329 329 328 327 325 324 325 324 324 323 330 332 331 331 329 324 320 319 316 315 317 319 322 321 321 322 321 319 317 317 316 316 315 316 318 319 320 321 321 321 322 321 321 321 320 319 326 336 336 336 335 336 340 342 340 341 342 343 343 341 340 337 335 331 330 328
329 330 329 328 327 326 327 327 326 326 327 331 325 325 328 328 331 332 330 330 330 328 327 325 324 324 324 324 325 327 327 328 328 327 327 325 321 319 316 315 315 315 317 322 322 320 318 316 315 316 316 316 317 319 320 320 320 321 321 321 321 320 319 319 320 320 330 338 334 333 334 338 341 340 340 342 343 344 345 339 335 334 331 329 329
329 329 329 329 328 328 328 327 327 327 327 329 324 324 324 325 327 330 328 328 328 327 326 325 324 324 324 324 325 326 327 331 332 328 325 325 322 319 316 315 315 315 316 317 317 321 321 317 316 316 317 318 318 320 322 322 322 320 321 320 320 321 321 320 320 322 325 335 336 334 333 336 338 337 337 340 342 344 345 338 336 335 332 330 329
330 329 329 329 329 328 328 327 327 327 327 328 324 322 321 322 323 327 327 326 326 326 326 325 325 325 324 324 323 324 325 325 324 323 322 322 322 323 322 322 323 323 319 317 316 315 317 319 318 316 319 321 320 321 324 324 322 320 320 319 320 320 320 320 322 323 326 331 331 332 331 335 339 338 336 339 342 343 345 341 334 332 332 330 329
329 329 329 328 329 329 329 329 328 327 328 325 320 320 318 317 319 325 324 326 326 325 325 326 325 325 325 325 324 324 324 323 324 324 322 322 320 320 319 321 321 321 320 320 320 320 321 320 320 320 321 322 322 322 323 323 322 322 322 321 321 321 322 324 324 324 325 329 332 331 326 333 338 337 338 340 342 343 345 338 334 332 331 329 328
330 330 330 329 329 329 329 329 328 326 326 323 319 318 317 316 321 325 323 323 323 324 324 325 325 325 325 325 325 324 324 323 321 318 320 321 317 317 318 318 317 317 318 318 318 320 321 321 322 323 323 324 318 321 321 320 320 320 321 323 323 322 320 319 318 322 322 327 331 330 328 331 336 336 337 340 341 340 343 346 335 330 329 328 328
329 329 329 329 330 329 329 328 327 326 326 323 316 315 315 316 319 322 321 323 323 323 323 324 325 325 325 325 325 325 324 323 320 316 316 316 315 315 314 314 315 316 317 320 319 317 316 314 313 313 313 313 314 315 314 314 319 319 320 319 318 319 318 316 317 319 320 324 327 331 330 328 333 336 336 338 339 339 341 344 346 332 328 327 326
330 330 329 328 328 329 328 327 327 326 326 323 314 312 313 315 321 321 322 322 322 322 323 323 324 323 324 331 333 325 321 320 317 312 313 313 312 311 312 313 314 316 317 320 322 322 317 316 316 317 317 317 317 317 317 316 315 316 319 316 319 320 317 317 316 318 321 323 325 332 330 329 332 336 336 335 337 338 341 343 345 342 329 325 324
332 332 332 330 328 328 328 328 332 330 326 322 311 311 312 313 320 323 324 323 320 321 321 321 320 320 319 322 326 324 319 318 312 310 308 308 311 311 312 314 316 316 318 320 319 319 319 320 322 323 322 320 323 322 323 317 316 318 321 321 321 320 318 318 318 319 318 320 325 333 329 330 332 335 336 330 332 336 339 341 341 343 341 336 333
Wind_Speed
5 5 3 4 3 3 4 4 4 4 3 4 4 4 4 4 4 4 4 4 4 4 3 3 4 5 3 2 2 3 4 4 5 4 4 5 5 6 11 12 14 14 15 16 18 18 19 20 19 19 19 19 19 18 18 17 17 17 16 16 16 15 15 15 15 14 14 14 14 13 13 13 12 12 12 11 11 11 10 10 10 10 10 9 9
5 3 3 4 3 2 3 4 4 4 4 5 5 5 5 4 4 3 3 4 4 4 3 3 4 5 4 3 3 4 4 4 5 5 4 5 5 5 12 13 14 14 14 15 17 19 19 20 20 20 20 20 19 19 18 18 18 18 17 17 17 16 16 16 16 15 15 15 14 14 14 13 13 13 12 12 12 11 11 12 11 11 11 10 10
5 5 4 4 3 4 5 4 4 5 4 5 4 5 5 4 3 3 3 4 4 4 3 4 3 4 5 5 4 4 5 5 5 5 5 5 5 5 7 14 15 15 16 17 18 19 19 20 20 20 20 20 20 20 20 19 19 19 19 17 17 17 17 16 16 16 16 15 15 14 14 14 14 13 13 13 13 13 13 12 12 12 12 11 10
5 5 5 4 5 5 5 5 6 5 5 5 5 4 4 4 3 2 3 3 4 4 3 4 4 4 4 6 5 4 5 5 6 6 6 5 5 5 5 6 13 15 16 17 16 17 18 20 20 20 20 20 20 20 20 20 19 19 19 19 18 17 17 17 17 17 17 16 16 15 15 15 14 14 14 14 14 14 13 13 12 13 12 12 11
4 5 3 4 5 5 5 6 5 5 4 5 4 3 2 3 4 2 3 2 3 4 3 4 4 5 4 6 5 5 4 5 6 6 7 6 6 6 5 6 6 13 17 16 17 17 17 18 19 19 20 20 21 21 21 21 20 19 19 20 19 19 18 18 18 17 17 17 16 16 16 15 15 15 15 15 14 14 14 13 13 13 13 13 12
2 1 2 2 4 4 3 4 3 3 2 1 3 3 4 5 2 0 6 4 4 4 3 4 5 5 5 5 5 5 4 4 5 6 6 6 6 5 6 5 6 6 8 15 16 16 17 18 17 18 20 20 21 21 21 21 21 20 20 20 20 19 19 19 18 18 17 17 17 17 16 16 16 16 15 15 15 15 15 14 14 14 13 13 13
1 1 2 2 2 2 3 4 3 2 2 2 2 2 3 2 1 4 4 4 3 4 3 5 5 6 6 5 5 5 4 4 5 5 5 6 5 6 5 5 5 6 6 6 12 16 17 17 19 19 20 20 21 21 21 22 22 21 21 20 20 20 20 19 19 18 18 18 18 17 17 17 17 17 17 16 16 15 15 15 15 14 13 13 13
1 1 3 3 3 3 4 3 2 2 2 3 2 3 2 3 4 4 4 4 3 6 4 5 5 6 6 5 5 5 5 5 4 5 6 5 5 6 6 6 5 5 7 6 6 9 17 18 19 20 19 19 21 22 22 23 23 23 22 21 21 20 20 19 19 19 19 18 18 18 18 17 17 17 17 17 17 15 16 16 16 15 14 14 14
5 4 4 4 4 4 4 3 2 2 4 4 2 2 2 3 3 1 2 4 4 5 4 4 4 5 5 5 6 5 5 5 4 5 3 5 5 5 5 6 6 7 6 6 6 6 13 17 18 19 20 21 20 22 22 23 23 23 23 22 22 21 20 20 20 19 19 19 19 19 18 18 18 18 18 18 17 16 16 16 16 16 15 15 14
5 3 3 3 3 3 4 4 3 4 4 3 2 3 3 2 4 2 2 3 4 4 4 3 3 4 5 5 6 6 6 6 5 3 5 6 6 6 6 6 6 6 6 6 6 6 6 12 19 19 21 21 19 20 22 22 22 23 23 23 23 22 21 21 21 20 20 20 19 19 18 18 18 18 18 18 18 17 17 16 16 16 15 15 15
2 3 3 4 3 3 4 5 4 4 4 4 3 3 4 2 3 5 3 4 4 4 4 3 3 4 4 6 6 7 6 6 5 3 5 7 6 5 4 6 6 6 6 6 6 6 7 7 7 8 10 20 20 21 21 21 22 22 23 24 23 23 22 22 21 21 21 21 20 19 19 18 18 18 19 18 18 17 16 17 17 16 17 16 15
2 3 3 3 3 4 4 4 4 4 3 3 3 3 4 3 4 4 5 3 4 4 3 3 3 4 5 5 5 6 7 7 6 7 5 5 7 4 5 5 5 6 6 6 5 6 7 7 7 8 8 12 19 22 24 23 22 23 24 24 24 24 24 23 22 22 22 22 22 20 19 19 19 19 19 19 18 17 16 17 16 16 17 16 16
3 3 5 5 4 4 4 4 2 2 2 3 3 3 3 3 3 2 3 3 2 2 2 1 3 4 2 4 5 5 7 6 7 6 6 5 5 5 4 4 5 5 6 4 4 6 7 7 8 7 8 8 10 17 20 21 21 22 24 25 25 25 25 24 23 23 23 22 22 21 20 20 19 19 19 19 18 17 17 16 16 16 16 17 16
4 5 4 5 5 4 2 3 2 2 2 2 3 4 3 2 1 1 0 1 2 1 1 1 1 2 4 5 4 4 5 5 6 5 5 4 4 5 5 5 5 5 5 3 5 6 7 7 7 8 8 8 8 8 11 14 18 22 23 25 26 26 26 25 24 24 23 23 23 22 21 20 20 20 20 19 19 18 17 17 17 17 17 16 16
4 4 4 3 3 2 3 2 1 1 1 3 2 3 2 3 0 1 2 1 2 3 2 2 2 1 2 3 4 6 3 4 2 2 3 4 4 4 5 5 5 4 0 1 5 5 6 5 5 6 7 8 8 8 9 11 12 19 22 22 23 25 27 26 26 25 24 24 23 23 22 21 21 21 21 20 19 19 18 18 18 17 17 17 17
3 3 3 3 3 4 3 2 1 0 1 1 1 1 0 1 1 2 1 1 1 2 0 2 1 1 3 0 2 2 5 2 4 6 5 4 2 2 2 3 4 2 1 3 5 4 4 4 4 5 7 7 6 7 7 7 14 20 22 23 23 23 26 27 28 27 26 24 23 22 21 22 22 21 21 21 21 20 19 19 19 18 18 18 18
4 4 4 4 3 4 3 2 1 1 1 1 0 1 1 1 2 2 3 2 1 1 2 1 0 2 2 1 1 1 1 3 5 5 2 6 7 7 4 3 2 1 4 5 3 4 5 6 6 6 6 6 6 5 6 8 10 12 16 21 23 23 24 25 28 28 27 26 25 22 22 21 22 22 22 22 21 21 21 20 20 19 19 19 18
3 3 2 2 2 3 3 3 2 1 2 0 0 0 1 1 2 2 2 2 2 1 2 2 2 2 4 0 1 2 2 2 3 4 2 3 3 3 4 5 5 6 6 5 5 5 5 6 6 7 7 7 7 8 7 7 10 11 10 10 20 21 23 24 27 28 28 28 26 24 23 22 22 22 21 22 24 21 21 21 20 20 20 20 19
2 2 2 1 2 3 3 3 2 1 1 1 0 0 1 2 1 1 2 2 2 0 2 2 3 1 1 1 3 2 2 2 2 3 7 2 1 4 6 6 4 5 5 5 5 5 5 5 6 7 8 7 7 8 8 10 14 15 19 18 18 19 21 24 25 26 27 27 27 26 25 24 23 23 22 22 24 24 23 22 22 21 21 20 20
2 0 1 0 3 3 1 1 1 1 1 1 0 1 1 1 1 1 1 2 3 2 2 1 0 2 1 2 3 3 3 4 4 3 3 6 8 3 3 5 6 5 6 6 6 5 6 6 6 7 7 8 8 7 8 8 9 11 12 18 19 19 19 21 23 24 26 27 27 27 26 25 24 24 23 23 23 25 23 23 23 22 22 20 19
0 0 1 1 0 1 2 3 2 1 0 0 1 1 1 2 2 1 0 2 3 3 2 2 2 2 1 1 1 1 2 4 1 1 2 3 5 6 7 5 4 3 3 5 6 6 5 5 6 7 7 7 8 8 8 8 9 10 11 17 19 21 20 20 22 25 26 28 28 28 28 27 27 26 25 23 23 24 25 23 24 23 22 21 21
1 1 0 0 2 3 3 2 1 1 0 1 2 2 2 1 1 1 1 2 2 3 3 3 3 3 2 2 1 1 2 1 1 2 3 4 4 6 6 7 9 7 7 5 5 6 7 6 6 6 6 7 7 8 8 9 9 9 12 19 19 21 22 22 23 25 25 26 27 29 28 28 28 27 26 25 24 24 25 25 25 26 25 23 23
1 2 2 1 2 1 2 2 1 0 0 0 1 1 1 1 1 1 1 1 2 2 2 3 3 3 2 3 3 3 2 2 2 2 2 3 3 4 6 5 5 9 6 5 6 7 7 7 7 7 7 7 7 7 8 9 11 13 18 18 19 20 22 22 22 23 23 24 26 27 28 27 26 27 27 26 26 25 24 25 25 25 26 24 23
1 1 2 2 1 0 1 1 0 1 2 2 1 1 2 1 0 0 0 1 1 1 2 3 3 3 3 3 3 3 3 3 3 3 3 3 3 5 6 5 4 4 6 7 7 6 5 6 6 7 7 7 7 8 8 8 9 18 16 18 20 21 21 22 22 23 23 23 23 25 25 26 26 26 27 27 27 26 25 24 25 25 25 25 23
1 3 3 3 2 1 1 0 1 2 3 2 2 2 2 1 1 1 2 2 2 2 2 3 3 3 4 4 4 3 4 4 3 3 3 3 3 4 3 2 5 7 4 4 4 4 6 7 6 6 6 7 7 7 8 8 8 12 17 14 21 21 21 21 22 23 23 23 23 24 25 25 25 25 26 27 27 27 25 25 25 24 25 24 24
4 4 5 4 3 2 2 3 3 3 2 3 3 3 3 3 2 2 3 3 1 2 3 3 3 3 3 3 3 4 4 4 4 4 3 2 3 4 4 2 3 6 3 2 2 5 3 3 5 6 7 7 7 8 8 9 9 12 17 14 16 20 21 21 22 23 24 24 24 24 24 25 25 25 25 25 25 26 26 26 25 25 24 24 24
5 5 4 4 4 3 3 4 3 3 3 3 4 3 3 2 3 3 2 3 3 2 2 2 3 3 3 4 4 4 4 4 4 4 3 4 3 3 2 6 4 2 4 2 4 3 7 4 4 6 6 7 6 7 8 8 10 15 17 13 12 18 20 20 21 22 23 23 24 24 24 24 25 25 25 25 25 25 25 25 25 24 24 24 24
4 3 5 4 4 4 4 4 4 3 3 4 4 4 3 4 3 3 3 2 3 3 4 3 3 3 3 3 2 4 4 4 4 4 4 4 4 2 2 3 4 6 5 6 3 3 2 4 4 4 5 6 7 8 11 13 11 15 17 11 11 12 17 19 20 21 22 22 23 23 24 24 24 24 25 25 25 25 25 25 25 25 24 23 22
4 4 5 4 4 4 4 4 4 4 4 3 4 4 4 4 5 3 4 3 3 4 3 3 4 3 3 3 4 4 4 3 3 3 3 3 3 2 3 3 3 5 4 4 7 5 1 3 6 2 5 7 9 9 10 10 13 16 11 10 11 11 14 17 19 20 20 22 22 23 24 24 24 24 24 25 25 25 25 25 24 24 24 23 23
4 5 4 4 4 5 4 4 4 4 4 3 3 4 4 4 4 4 4 3 3 3 3 3 4 3 3 3 3 4 3 3 4 3 3 2 1 2 2 2 3 3 3 5 6 3 5 4 3 5 8 10 9 9 8 11 17 19 13 12 11 10 15 17 19 20 21 22 23 23 24 24 24 24 24 24 24 24 25 25 24 24 24 24 23
4 4 4 4 5 4 4 4 4 4 4 3 3 3 3 4 4 5 4 3 3 3 4 3 4 3 3 3 3 4 3 3 4 3 3 3 2 1 1 1 1 3 4 4 5 4 2 7 6 6 9 11 10 10 10 9 12 17 13 12 12 14 17 15 19 20 20 21 22 22 23 24 24 23 22 22 23 24 24 24 24 24 24 24 23
4 4 4 5 5 5 4 5 4 4 3 4 3 4 3 4 4 5 4 3 3 4 4 3 2 2 3 3 4 4 4 3 3 4 3 3 3 2 1 1 2 2 3 3 7 10 7 7 8 10 9 10 11 11 12 10 11 18 13 12 13 16 13 11 16 20 20 21 21 22 22 22 23 23 22 22 22 23 23 23 23 23 23 23 23
4 4 5 6 5 5 4 4 5 4 4 4 3 3 3 4 4 4 4 3 4 4 3 4 2 3 4 4 4 5 4 4 5 5 4 4 3 4 3 3 4 3 3 3 6 9 7 6 7 9 10 9 10 10 12 12 12 11 13 12 12 11 11 10 10 15 19 20 20 21 21 21 22 23 23 23 23 23 23 23 23 23 23 23 23
4 5 6 5 4 4 4 5 5 5 4 4 4 3 4 4 4 3 4 4 4 4 4 4 4 3 4 4 5 5 4 5 4 6 6 5 5 4 5 5 5 5 4 3 5 7 11 8 9 7 9 8 10 9 10 13 13 12 13 13 11 10 10 9 9 9 15 17 19 20 21 21 22 22 23 23 23 23 22 22 22 22 23 23 23
4 5 6 5 5 5 5 5 5 5 5 5 4 4 4 4 5 4 4 4 4 4 4 5 5 4 4 4 6 6 4 4 5 6 6 6 6 6 6 5 5 6 5 5 4 7 8 9 9 10 9 8 9 12 12 11 11 12 14 13 11 10 9 9 9 8 13 15 17 18 20 21 21 21 22 23 22 22 22 22 22 22 22 23 23
5 5 5 6 5 6 6 6 5 5 5 5 4 5 6 6 5 5 4 4 4 4 5 5 5 4 5 5 6 6 5 5 5 6 6 6 6 6 5 5 5 6 5 4 5 6 5 9 10 10 9 9 10 10 9 11 11 12 11 12 11 11 11 10 10 9 10 15 16 16 18 20 21 21 21 22 21 21 21 21 21 22 22 22 22
5 5 5 5 5 5 6 6 5 5 6 6 5 5 5 5 6 5 5 4 5 5 5 5 5 5 5 5 6 5 5 5 5 5 5 6 6 5 6 5 5 5 4 5 5 5 7 10 11 9 9 9 9 11 10 10 11 10 11 11 11 11 11 10 9 9 13 16 17 18 17 18 20 21 21 21 21 20 20 20 21 21 22 22 22
5 5 5 4 4 5 5 5 5 5 5 5 6 6 6 6 5 5 5 5 5 5 5 5 6 5 6 6 6 6 4 5 6 6 5 6 5 5 6 6 5 4 5 5 5 6 7 9 9 11 9 10 10 9 9 9 11 12 11 11 10 9 9 10 9 8 7 7 6 9 13 16 18 21 21 20 21 20 20 20 21 21 22 22 22
5 4 4 4 3 4 5 4 4 5 5 5 6 6 5 5 5 5 5 5 5 5 5 6 6 6 6 6 6 6 6 6 6 5 5 5 6 7 7 6 5 5 5 5 5 7 8 8 9 8 10 9 8 11 10 9 10 10 11 11 10 7 7 8 10 8 7 9 11 14 13 11 14 14 17 20 21 21 20 20 20 21 21 22 21
6 5 4 4 3 4 5 5 5 5 4 4 4 4 5 6 6 5 6 6 6 5 5 6 6 6 6 6 6 6 7 6 5 5 5 6 5 6 6 5 5 5 5 5 6 7 8 8 8 9 8 10 10 8 9 9 9 9 7 8 11 11 10 8 8 10 8 8 9 8 10 12 13 15 18 18 19 19 19 18 20 20 21 21 21
4 4 4 3 4 4 4 5 4 3 3 4 4 4 5 6 6 6 6 6 6 6 5 6 6 5 5 5 5 5 6 8 10 8 8 7 5 6 6 5 5 5 5 5 6 7 7 8 9 7 8 9 9 10 10 10 10 10 11 9 11 11 10 10 10 8 9 9 8 8 8 7 8 8 8 8 10 15 16 19 15 20 21 20 20
4 4 3 3 4 5 5 4 4 3 4 4 5 9 9 7 7 6 6 6 6 6 6 6 6 5 5 5 5 9 10 10 10 10 11 11 11 9 8 6 6 5 5 6 7 6 7 8 8 8 9 9 10 10 10 11 11 10 11 10 10 10 10 11 10 9 7 8 9 10 9 7 8 8 8 9 9 10 8 9 11 13 16 19 19
5 4 4 5 5 5 5 4 4 5 5 4 9 10 12 13 8 6 6 6 6 6 6 6 6 6 5 4 4 6 7 7 7 10 11 11 11 12 13 13 9 7 6 7 7 7 7 8 8 8 9 10 11 10 10 11 10 11 11 10 10 10 10 11 13 10 5 8 8 9 10 7 8 10 9 9 9 8 8 10 14 17 18 18 19
6 5 5 6 5 5 5 5 5 6 6 7 11 11 12 13 11 7 6 6 6 6 6 6 6 5 6 6 5 4 4 6 6 6 8 10 10 10 11 12 13 12 11 8 8 8 7 7 8 10 8 9 10 10 11 10 11 11 11 11 11 11 11 11 10 11 4 4 8 9 11 7 7 9 10 10 9 9 10 13 16 17 18 19 19
5 6 7 5 6 6 6 6 7 7 6 9 10 10 11 12 13 10 6 6 7 7 6 5 5 5 5 6 6 5 5 9 7 5 5 6 8 9 10 11 11 12 12 13 13 11 8 8 8 11 10 9 10 11 11 11 11 12 12 11 11 11 10 12 12 10 11 8 9 10 11 8 7 9 10 11 9 9 11 14 17 18 19 19 19
6 7 6 6 6 6 6 7 7 7 6 8 10 11 11 12 11 9 6 6 6 6 5 5 5 5 6 6 6 6 6 5 6 5 4 5 5 4 4 5 6 8 10 11 13 15 15 10 9 11 12 9 10 12 13 11 12 13 13 14 13 13 13 13 13 12 12 9 12 10 10 9 7 8 11 10 9 9 10 12 17 19 19 20 20
8 8 7 6 6 6 7 7 7 7 6 9 11 11 9 9 8 7 5 5 5 5 5 5 6 6 6 6 6 7 7 6 6 6 5 5 4 4 4 6 6 6 6 7 7 5 5 7 9 11 12 11 11 12 12 11 11 12 12 14 15 15 15 15 14 14 13 11 12 12 13 9 6 9 11 9 8 9 9 12 16 18 20 20 20
6 5 5 6 6 7 7 7 7 7 7 10 11 10 9 8 8 5 5 5 5 5 5 5 5 6 5 6 6 7 7 7 9 10 8 4 3 3 5 6 6 6 6 8 9 8 8 8 8 9 10 12 15 15 15 14 13 13 13 12 11 12 12 14 15 11 11 8 9 11 11 10 6 9 9 8 7 9 8 8 13 19 19 20 20
4 5 5 5 5 6 6 6 7 7 7 8 12 12 11 11 7 5 4 4 4 4 5 5 5 5 5 5 5 6 6 6 8 8 6 4 2 3 5 6 6 5 8 6 6 10 11 13 14 16 18 19 18 19 20 22 16 14 12 12 13 12 12 13 13 11 12 8 8 10 11 12 9 9 9 6 8 9 9 8 8 13 19 19 20
6 6 5 5 6 6 7 8 7 8 8 8 12 11 12 11 8 5 5 5 4 3 4 4 5 5 5 9 7 4 5 6 6 4 4 3 2 4 4 5 6 6 7 6 6 7 10 13 14 15 15 15 16 18 19 19 18 15 11 13 14 12 13 12 13 12 10 9 11 10 11 13 8 8 8 4 5 6 8 7 8 8 13 15 18
7 5 3 1 5 8 10 12 12 10 8 6 8 10 9 9 6 4 5 5 3 3 4 5 4 5 4 4 8 8 6 5 3 5 5 4 3 4 3 3 5 7 7 7 8 10 9 10 9 9 10 11 11 10 12 17 18 16 12 13 13 14 13 13 13 11 11 12 12 12 13 10 10 9 8 4 6 4 6 7 7 7 7 7 9
Wind_Direction
214 219 207 221 230 218 214 226 224 239 234 253 238 242 242 236 239 251 247 245 248 258 258 275 284 285 265 249 249 227 223 235 241 235 228 229 233 234 235 229 224 220 213 212 213 213 214 214 213 212 212 213 212 212 211 211 213 213 213 214 218 217 215 214 215 216 217 217 219 222 223 224 225 225 226 228 229 230 233 236 239 240 243 242 241
217 223 199 234 241 241 237 238 232 234 223 244 238 236 242 237 239 243 240 245 242 246 236 254 275 281 275 239 209 238 235 226 239 241 231 224 229 234 235 235 228 224 222 220 218 218 216 216 216 214 214 214 213 213 213 212 213 216 214 213 215 218 219 219 218 218 219 221 220 222 224 226 227 228 228 228 230 231 234 237 239 241 243 245 245
210 213 214 210 222 233 237 234 241 239 222 236 240 231 231 235 244 248 255 256 254 253 252 258 263 262 270 263 228 193 228 232 235 237 238 229 226 234 236 232 227 222 220 219 221 220 218 217 216 216 214 215 217 216 216 215 213 215 218 216 215 216 219 221 223 222 221 221 222 222 224 226 227 229 230 231 231 232 235 238 242 244 244 246 247
210 215 209 205 206 209 220 219 229 228 217 221 224 225 225 239 256 253 241 236 260 256 239 240 257 261 267 271 262 211 211 216 223 226 235 233 222 228 235 238 229 223 225 229 229 230 229 222 218 217 217 216 217 218 218 218 217 215 216 219 217 217 218 220 223 225 224 223 223 223 224 226 228 229 231 233 234 234 234 237 238 244 246 245 246
215 224 218 211 215 209 206 215 223 221 217 220 221 219 235 252 256 289 274 246 264 275 286 275 276 271 263 269 269 256 224 204 215 215 222 226 219 218 218 224 232 230 226 227 228 228 233 234 228 223 220 219 218 219 219 219 219 218 217 219 221 221 220 219 221 225 227 226 226 225 224 226 228 229 231 233 235 236 236 236 237 239 244 247 247
149 212 232 241 242 237 241 242 229 216 204 196 206 195 216 221 196 265 258 237 245 260 276 276 268 272 267 258 269 272 266 240 219 216 212 219 220 220 221 214 221 227 226 223 225 226 229 230 231 232 228 223 221 220 220 220 221 221 220 219 221 224 223 221 221 223 226 228 228 227 227 226 228 230 231 233 235 236 238 239 238 239 240 243 246
131 146 275 247 269 281 274 266 270 251 254 267 226 216 205 241 258 240 249 260 274 287 249 259 272 275 271 273 271 282 278 256 248 225 208 213 208 225 229 222 213 216 218 217 225 224 228 231 229 228 230 229 225 222 220 221 222 222 221 220 221 223 225 224 222 222 224 227 229 230 229 228 228 230 232 233 234 235 237 239 240 240 240 241 242
171 214 273 282 285 292 278 296 318 333 295 285 262 265 249 258 243 252 284 277 258 245 240 257 260 269 277 280 272 273 278 274 252 239 220 201 211 220 228 231 221 218 220 213 216 224 226 229 231 230 232 233 233 227 223 221 222 222 222 221 220 221 224 226 224 224 224 225 227 230 231 231 230 230 231 233 234 234 236 239 240 241 241 241 241
194 187 200 244 261 274 283 290 319 295 286 278 293 296 291 274 267 231 225 269 260 266 249 238 258 262 273 282 283 279 277 270 248 240 234 208 217 225 231 235 230 215 218 215 217 222 229 230 232 230 230 230 231 234 228 224 222 222 222 222 221 221 222 224 226 225 225 226 226 228 231 232 232 232 232 232 233 234 235 237 240 241 241 241 241
201 180 204 229 236 254 281 296 305 297 287 289 276 274 256 239 287 268 205 238 260 262 259 254 255 270 270 268 273 274 271 274 264 220 223 232 219 215 224 235 237 231 218 216 217 222 227 233 233 232 231 233 230 231 235 232 227 224 223 223 223 222 221 222 225 225 225 227 228 228 228 230 232 232 232 233 234 234 234 235 237 239 240 241 240
187 195 213 243 268 274 282 282 285 283 272 265 255 259 271 253 248 285 276 241 250 249 256 247 256 260 268 268 267 267 269 269 270 232 213 244 242 226 205 226 228 231 227 219 217 219 224 228 233 231 234 234 234 233 232 236 233 230 227 225 224 224 223 222 223 224 225 226 226 228 228 229 229 231 233 233 234 235 234 235 234 235 238 240 240
215 220 226 248 254 256 257 261 262 253 252 253 260 247 248 251 250 245 265 280 251 254 258 270 270 271 275 269 267 274 270 265 269 269 255 247 255 247 221 215 222 236 233 227 218 222 227 228 228 229 233 235 234 236 233 230 231 230 230 229 226 225 226 224 222 222 224 225 226 226 226 228 228 229 231 232 232 234 234 235 233 234 236 239 241
212 196 215 229 230 239 238 257 253 252 264 269 267 267 239 211 223 227 260 288 292 250 239 221 298 300 291 284 283 270 267 269 267 269 261 246 252 262 250 216 220 232 240 236 230 227 228 230 227 227 231 235 239 239 237 235 233 231 230 230 229 227 226 226 224 222 223 223 224 225 225 225 226 228 229 230 231 231 232 233 233 233 234 237 239
206 204 217 218 230 234 247 269 311 305 273 276 276 271 265 250 226 351 293 278 278 272 260 143 323 263 322 315 291 280 269 265 268 284 291 279 264 257 263 255 241 231 235 238 245 236 234 232 230 228 230 230 232 231 235 233 234 232 234 233 231 230 228 228 226 225 224 223 223 224 224 224 225 226 227 228 229 230 231 232 232 233 234 234 236
210 213 215 226 229 225 239 235 246 241 341 321 316 302 256 260 184 194 289 303 262 264 249 174 246 303 268 295 326 345 337 346 338 321 294 274 267 262 270 273 280 274 138 256 255 251 249 242 244 249 250 237 231 230 230 232 229 227 229 232 234 235 232 230 228 228 226 225 224 224 222 222 222 223 224 226 227 228 230 231 232 233 234 235 236
212 217 205 209 201 192 196 179 241 243 211 244 279 309 251 207 166 187 170 302 281 309 279 188 179 50 347 26 285 334 322 320 327 301 294 309 302 303 290 278 285 334 88 216 240 271 292 298 275 257 246 245 249 256 255 238 239 238 232 228 229 232 234 232 230 229 228 227 226 225 224 222 221 221 222 224 227 227 228 230 231 232 233 235 237
170 166 162 171 177 172 162 181 191 228 162 149 222 264 261 220 185 172 176 189 207 274 321 51 132 171 165 344 333 293 270 281 331 294 338 356 329 319 342 348 10 320 278 268 224 227 241 248 244 248 259 256 244 229 232 248 248 238 236 232 229 230 232 233 234 231 229 229 228 226 225 224 222 221 221 222 223 225 227 228 230 231 232 234 235
163 173 172 180 173 185 169 170 185 191 177 176 242 347 307 264 219 196 209 200 171 168 284 319 293 229 206 115 293 232 283 311 315 313 314 265 279 321 332 351 339 323 303 293 270 244 228 243 246 249 246 238 236 244 248 246 252 254 246 233 231 229 230 231 234 236 234 231 229 227 225 225 225 223 221 221 223 223 225 228 229 230 231 233 234
193 178 203 226 179 189 190 179 178 184 191 130 18 245 256 227 199 162 216 158 119 200 264 274 326 337 81 190 236 244 228 253 295 301 316 332 21 339 326 308 322 322 307 290 274 267 265 258 263 255 252 245 234 236 235 232 234 237 249 246 233 230 229 230 230 234 237 236 232 230 228 225 224 224 223 223 225 226 226 227 228 229 230 231 233
145 326 287 193 195 196 180 137 127 220 190 238 255 265 274 292 207 190 175 156 158 183 250 235 306 281 210 226 231 239 229 255 251 261 288 300 315 312 272 314 323 307 294 296 300 289 280 277 268 263 251 249 246 239 238 245 250 247 246 243 239 234 231 230 230 228 231 236 237 234 230 228 226 224 223 223 224 225 226 227 228 229 229 229 230
140 183 296 340 261 164 146 107 108 150 185 243 272 256 291 317 321 301 236 182 178 187 159 222 192 228 278 319 305 232 247 230 253 189 260 299 290 313 318 308 298 273 288 302 291 289 282 266 251 253 256 252 247 245 242 238 242 245 249 249 242 237 233 229 229 231 231 233 234 235 236 232 229 227 224 221 222 224 225 226 227 228 228 228 229
358 308 351 14 125 120 114 133 145 139 76 304 297 316 330 320 268 237 194 184 214 179 192 216 209 228 195 200 194 248 238 322 98 200 241 231 271 306 316 330 330 314 311 287 285 288 286 284 276 259 253 251 244 239 238 240 243 247 249 250 248 245 240 234 231 231 230 230 232 233 234 235 233 230 228 224 222 222 224 226 226 227 228 228 228
300 311 40 147 97 125 143 170 172 154 143 267 283 279 285 208 162 138 142 184 216 212 231 229 216 209 205 185 206 196 199 213 241 233 242 268 297 290 311 301 292 302 297 303 303 289 282 285 279 272 266 262 252 247 243 241 242 243 246 246 244 245 245 241 236 233 231 230 231 232 233 234 236 235 233 229 227 224 222 223 224 224 227 228 227
346 360 119 119 149 213 131 85 65 235 252 227 225 206 213 183 171 181 223 223 213 199 206 226 218 212 220 204 208 200 197 205 224 210 244 268 302 303 294 304 290 235 286 304 288 282 287 283 277 277 271 265 261 255 253 249 248 247 246 247 247 246 244 245 243 237 233 231 231 233 233 233 234 235 237 235 231 227 225 223 223 224 226 227 228
213 150 189 202 193 151 143 194 263 258 242 217 224 215 202 219 241 261 254 249 231 211 216 227 202 197 223 212 194 189 213 219 200 210 215 223 247 285 270 256 281 301 290 295 302 304 290 282 286 285 285 277 272 266 261 254 252 251 248 250 249 247 245 244 242 241 238 234 233 233 233 233 234 235 235 235 235 233 229 227 226 224 226 228 229
190 199 206 204 203 197 186 204 219 238 238 207 213 218 208 216 227 241 251 253 234 205 213 228 219 233 213 211 208 207 229 208 209 201 216 193 226 244 289 284 256 279 290 308 302 334 315 310 297 295 292 285 282 283 279 272 269 262 257 252 256 252 247 243 241 239 238 237 235 234 234 234 233 234 234 234 235 235 233 231 229 228 226 227 231
195 214 207 202 208 202 204 203 212 217 214 208 217 223 222 200 204 202 236 244 232 204 225 229 247 243 220 219 236 233 235 214 191 216 203 203 203 221 256 314 309 272 295 280 284 239 271 293 296 302 290 296 299 297 291 287 277 268 268 265 261 257 252 246 241 239 238 237 236 235 234 234 233 233 233 232 233 234 234 232 231 231 231 233 233
212 197 212 198 200 206 213 214 212 212 206 206 212 213 204 197 214 205 238 230 221 228 243 221 241 247 232 229 217 246 242 233 210 213 200 206 209 202 188 262 305 310 315 302 300 273 255 306 301 251 298 317 313 310 306 299 296 289 279 269 263 259 255 251 247 243 240 238 236 235 235 235 234 233 233 232 232 232 233 233 232 231 231 233 234
196 199 211 212 205 202 216 232 235 228 231 222 215 209 202 207 212 213 233 243 219 231 229 211 230 234 243 229 211 230 242 229 229 222 214 190 197 198 186 209 261 298 311 307 312 316 302 346 324 314 338 318 312 311 306 298 294 294 289 278 269 260 255 251 248 246 243 240 236 235 234 234 234 234 233 232 232 231 231 232 233 233 232 233 234
196 206 199 206 208 215 211 229 235 241 240 249 236 222 206 213 214 219 225 219 227 250 245 221 230 210 219 233 225 234 244 225 221 215 193 198 200 204 203 203 201 270 284 296 295 283 286 306 284 296 317 312 309 303 303 298 296 295 286 282 278 267 256 253 250 247 244 242 239 237 235 233 232 233 232 231 231 230 230 230 232 233 233 233 233
206 201 196 204 209 222 213 220 226 231 239 241 236 231 201 208 216 220 229 205 203 233 245 224 237 220 223 236 240 237 238 226 228 203 192 168 180 184 213 180 188 212 264 278 288 265 280 307 296 287 299 303 304 303 299 295 294 296 288 279 275 271 264 257 251 248 245 243 240 238 236 234 232 232 231 230 230 230 229 229 230 231 232 233 233
208 204 194 200 206 217 220 216 218 219 222 232 217 218 203 207 213 223 238 211 221 240 260 262 260 225 235 263 265 244 237 218 214 201 193 186 165 163 184 212 237 209 210 225 257 277 292 288 292 295 290 294 302 299 298 298 295 298 291 282 275 274 270 262 255 248 245 243 240 237 235 234 234 233 231 230 229 229 229 228 229 229 231 231 231
208 207 209 213 215 217 225 221 217 212 213 234 241 233 223 228 231 228 239 224 227 245 233 254 231 214 222 235 254 246 230 209 210 203 200 196 185 184 188 198 236 237 205 227 261 284 287 274 282 288 292 296 295 293 297 299 300 299 294 283 277 271 268 262 256 247 242 241 239 238 235 233 232 232 233 231 230 229 228 228 228 229 230 231 230
206 211 218 228 223 219 224 230 225 217 213 215 233 232 230 227 235 224 229 224 229 234 229 243 245 227 232 242 256 254 234 220 208 204 202 200 198 199 209 201 225 246 214 209 247 277 295 302 295 283 287 290 289 292 296 300 300 299 295 292 282 272 267 265 257 255 244 238 236 236 235 235 232 231 232 232 231 231 230 229 228 228 229 230 230
222 217 228 232 230 225 222 228 228 224 218 213 221 218 221 217 223 230 220 209 206 221 231 239 238 238 243 243 248 246 242 235 229 218 205 206 205 205 218 201 215 234 231 211 239 275 286 294 294 298 298 300 293 298 298 292 291 292 292 289 285 279 269 262 260 257 253 245 236 233 235 236 236 233 231 231 230 229 230 230 229 228 229 229 229
230 235 226 227 229 227 228 234 227 225 221 217 215 217 219 217 219 220 214 210 214 221 227 235 240 237 238 247 253 247 245 246 244 234 224 217 212 217 219 218 212 236 239 227 219 248 276 291 297 297 298 301 296 292 292 291 291 291 286 285 280 276 274 269 263 259 254 250 245 238 235 236 236 234 231 230 229 228 227 228 228 228 228 228 228
230 230 236 228 226 225 227 233 230 224 219 211 214 222 224 221 213 209 214 219 223 228 232 236 241 240 244 238 248 246 243 244 254 249 240 232 230 221 224 224 222 234 242 235 242 244 270 287 292 291 294 291 288 291 291 296 297 291 288 285 285 281 276 270 268 262 255 246 243 240 236 235 235 235 232 229 228 227 226 227 228 229 229 228 227
213 204 203 208 202 210 214 212 206 209 212 213 215 221 220 219 216 212 215 221 230 234 236 237 240 241 240 245 248 246 241 228 236 235 233 237 236 231 229 231 232 236 241 250 248 256 266 276 286 295 298 298 301 291 294 293 295 300 297 289 284 278 277 277 268 265 263 251 242 239 239 239 239 238 236 234 231 228 225 224 224 226 228 229 228
185 195 207 202 209 180 190 178 186 197 210 218 223 228 225 218 212 209 219 231 240 239 240 239 243 242 242 245 248 239 226 222 228 233 241 244 234 236 229 230 238 232 242 254 261 273 278 285 288 284 290 289 288 298 299 292 287 284 290 299 296 286 270 267 274 269 260 258 248 238 231 223 227 231 233 232 231 229 228 225 224 224 225 227 227
188 192 205 206 211 178 188 192 202 200 205 220 230 232 225 215 209 215 218 228 239 243 246 249 247 248 246 244 240 232 224 227 226 239 234 247 239 240 238 232 238 231 245 260 270 275 285 291 287 291 290 293 298 286 289 295 296 292 282 297 301 304 301 284 266 272 270 258 256 252 239 235 235 233 235 235 234 234 233 232 230 227 225 224 225
191 195 205 197 188 211 225 217 223 221 214 231 234 218 215 218 212 220 223 229 233 239 247 251 249 248 254 252 253 248 232 232 228 233 237 229 229 242 254 237 233 230 246 259 267 277 285 289 289 283 286 292 293 301 307 307 304 299 300 296 289 289 291 292 284 261 257 260 260 252 242 222 225 225 220 225 230 229 233 229 232 231 229 226 225
197 204 210 220 206 214 228 239 242 233 228 228 232 222 211 206 212 221 227 231 230 234 245 258 266 253 248 252 256 249 238 237 245 251 255 254 242 233 244 238 230 228 237 249 265 274 284 288 285 290 292 290 296 301 300 299 297 295 292 291 289 294 294 289 284 268 252 246 254 253 247 228 224 231 219 226 229 214 221 216 222 223 224 221 221
201 207 203 217 226 224 222 234 237 227 230 232 233 224 220 219 214 218 223 231 229 231 234 240 254 270 274 263 258 257 249 255 259 261 261 259 255 242 241 239 230 220 235 250 263 275 279 278 283 283 277 282 288 295 297 299 299 298 295 291 288 290 291 297 296 297 229 225 239 251 254 229 216 232 230 230 230 217 216 223 221 221 224 220 217
212 204 213 218 223 233 235 234 230 229 231 236 238 235 228 230 228 223 224 230 231 230 231 234 243 255 266 271 264 253 255 252 256 263 265 261 256 253 245 240 241 236 230 229 259 280 272 271 276 275 275 278 287 296 297 299 301 302 296 291 283 280 280 279 276 276 277 220 247 250 254 238 209 226 235 232 230 226 224 221 220 219 219 221 219
199 208 218 216 227 236 237 236 236 235 233 240 242 239 235 233 231 222 226 227 229 231 228 232 241 249 256 261 267 264 259 264 263 258 258 270 270 259 246 244 244 235 233 235 234 239 257 261 264 275 273 279 289 289 290 294 299 295 298 293 287 274 265 267 268 274 274 267 257 249 254 242 199 223 233 234 229 228 229 222 218 216 218 219 219
207 217 216 218 228 235 235 233 236 241 236 242 231 230 226 225 225 213 224 224 230 233 233 235 241 246 247 248 255 265 266 267 266 264 260 256 261 264 260 252 254 252 248 246 242 236 236 243 254 266 275 274 277 285 289 293 296 296 297 293 294 287 278 267 266 263 266 270 268 263 257 245 209 222 232 235 224 229 228 221 213 214 215 216 216
211 215 215 219 228 230 234 232 234 238 241 227 218 214 213 217 218 203 216 221 229 235 238 240 243 247 251 245 243 248 261 271 268 261 257 258 258 259 263 268 263 265 266 268 259 244 234 228 235 248 262 273 276 279 284 286 283 282 279 282 283 283 281 278 270 259 262 251 258 262 257 251 211 223 233 230 223 229 226 225 213 212 214 214 215
228 223 228 222 226 228 228 230 229 238 245 226 210 210 210 214 194 194 200 216 225 236 245 250 255 254 252 245 244 251 256 262 268 262 252 242 226 251 266 272 280 272 264 253 259 263 259 256 258 262 269 271 276 282 284 285 285 285 281 278 277 274 276 274 267 262 252 239 225 242 255 256 223 228 237 225 220 231 228 227 214 210 211 212 214
237 238 237 232 234 232 235 231 231 242 251 224 202 200 203 202 185 193 200 209 220 230 245 253 260 261 256 251 248 257 260 260 263 254 228 175 203 252 265 273 275 280 279 291 270 265 265 266 268 268 267 267 273 281 284 283 279 278 286 284 279 277 272 269 266 257 250 236 230 225 242 253 233 229 240 219 208 225 228 224 220 208 209 210 211
232 230 231 240 244 240 239 243 237 240 247 221 199 198 202 195 184 187 197 198 216 232 257 267 268 270 268 270 270 252 259 266 258 216 187 175 229 253 259 270 287 293 296 302 302 292 288 284 280 278 279 285 294 292 287 284 285 287 288 287 286 280 273 266 264 257 256 232 230 209 228 237 234 219 227 208 205 225 222 221 218 209 206 212 211
222 229 238 324 13 350 332 313 275 250 245 220 199 197 196 186 182 191 182 188 208 241 252 274 270 266 276 281 283 286 284 276 215 203 212 208 242 250 244 266 287 293 294 307 305 304 305 308 306 309 304 298 294 292 291 289 288 289 285 282 284 277 275 273 266 258 247 241 225 194 218 229 220 220 198 209 223 223 207 216 211 210 193 193 205